星链-11175 (STARLINK-11175)

导读 | 豆包AI

STARLINK-11175是美国太空探索技术公司(SpaceX)星链星座的卫星之一,于2024年7月3日发射入轨。星链项目旨在构建全球卫星互联网星座,为全球偏远地区等提供高速互联网接入服务。该卫星延续星链标准设计,助力拓展星座覆盖范围,提升全球网络服务能力,推动卫星互联网技术发展与应用落地。

基本信息
目录编号:
60191
目录名称:
STARLINK-11175
国际标识:
2024-124J
轨道中心:
EARTH
卫星名称:
星链-11175 (STARLINK-11175)
卫星全名:
星链-11175 (STARLINK-11175)
卫星状态:
在轨 (已飞行691 天)
发射日期:
2024-07-03 UTC
国别 :
美国 (US)
星等 :
--
轨道信息
数据来源 国际轨道数据
星历时间: 2026-05-24T08:36:14+0800
1天前
查看轨道信息
半长轴: 6737.867km
偏心率: 0.0001149
轨道倾角: 53.159°
近地点辐角 67.610°
升交点赤经 150.078°
平近点角 292.504°
近地点: 358.955km
远地点: 360.505km
周期: 91.737分钟
每日圈数: 15.697092
详细信息
卫星平台:
Starlink v2.0 mini
运营商:
太空探索技术公司
运营商所在国:
美国
制造商(研发单位):
太空探索技术公司
制造商所在国:
美国
使用方式:
暂无
卫星简介
星链(Starlink)计划是由太空探索技术公司(SpaceX)提出的一个巨型低轨卫星互联网星座项目,计划在2019年至2024年间在太空搭建由约1.2万颗卫星组成的“星链”网络,其中1584颗将部署在地球上空550千米处的近地轨道,并从2020年开始工作。该卫星仍在工作。
2D轨道图
3D轨道图
轨道高度分析图
轨道倾角分析图
轨道综合分析图
查看轨道综合分析图